TimeCDT,TemperatureF,Dew PointF,Humidity,Sea Level PressureIn,VisibilityMPH,Wind Direction,Wind SpeedMPH,Gust SpeedMPH,PrecipitationIn,Events,Conditions,WindDirDegrees,DateUTC
1:53 AM,55.9,46.9,72,29.84,10.0,NE,8.1,-,N/A,,Clear,40,2012-10-01 06:53:00
2:53 AM,55.9,46.0,69,29.82,10.0,NE,10.4,-,N/A,,Clear,40,2012-10-01 07:53:00
3:53 AM,54.0,46.0,75,29.81,10.0,NE,8.1,-,N/A,,Clear,40,2012-10-01 08:53:00
4:53 AM,54.0,46.0,75,29.80,10.0,NE,10.4,-,N/A,,Clear,40,2012-10-01 09:53:00
5:53 AM,54.0,46.0,75,29.81,10.0,NE,8.1,-,N/A,,Clear,50,2012-10-01 10:53:00
7:53 AM,54.0,46.9,77,29.81,10.0,ENE,5.8,-,N/A,,Clear,60,2012-10-01 12:53:00
8:53 AM,55.0,48.0,77,29.80,9.0,NE,6.9,-,N/A,,Clear,40,2012-10-01 13:53:00
9:53 AM,57.0,48.0,72,29.80,9.0,NE,6.9,-,N/A,,Overcast,40,2012-10-01 14:53:00
10:53 AM,55.9,50.0,80,29.80,8.0,NNE,10.4,-,0.02,Rain,Light Rain,30,2012-10-01 15:53:00
11:53 AM,57.9,50.0,75,29.78,8.0,NNE,13.8,-,0.00,,Mostly Cloudy,30,2012-10-01 16:53:00
12:53 PM,62.1,51.1,67,29.77,9.0,NE,11.5,-,N/A,,Overcast,50,2012-10-01 17:53:00
1:53 PM,60.1,52.0,75,29.73,6.0,NNE,9.2,-,0.00,Rain,Light Rain,30,2012-10-01 18:53:00
2:53 PM,59.0,53.1,81,29.73,3.0,NE,9.2,-,0.03,Rain,Rain,40,2012-10-01 19:53:00
3:02 PM,57.2,53.6,88,29.72,2.0,NE,12.7,-,0.02,Rain,Rain,40,2012-10-01 20:02:00
3:14 PM,57.2,53.6,88,29.72,4.0,NNE,10.4,-,0.02,Rain,Light Rain,30,2012-10-01 20:14:00
3:24 PM,57.2,53.6,88,29.71,2.5,NNE,12.7,-,0.03,Rain,Light Rain,20,2012-10-01 20:24:00
3:33 PM,57.2,53.6,88,29.70,4.0,NNE,13.8,-,0.04,Rain,Light Rain,20,2012-10-01 20:33:00
3:53 PM,59.0,54.0,83,29.69,5.0,NNE,12.7,-,0.04,Rain,Light Rain,20,2012-10-01 20:53:00
4:53 PM,57.9,54.0,87,29.72,6.0,NNE,9.2,-,0.00,,Overcast,20,2012-10-01 21:53:00
5:53 PM,57.9,54.0,87,29.71,4.0,North,10.4,-,0.01,Rain,Light Rain,10,2012-10-01 22:53:00
6:49 PM,57.2,53.6,88,29.71,2.5,NNE,12.7,-,0.02,Rain,Rain,20,2012-10-01 23:49:00
6:53 PM,57.0,54.0,89,29.71,2.5,NNE,12.7,-,0.02,Rain,Light Rain,20,2012-10-01 23:53:00
7:01 PM,57.2,53.6,88,29.71,3.0,North,11.5,-,0.00,Rain,Light Rain,10,2012-10-02 00:01:00
7:53 PM,57.0,54.0,89,29.72,3.0,North,11.5,-,0.06,Rain,Rain,10,2012-10-02 00:53:00
8:00 PM,57.2,53.6,88,29.72,2.5,North,12.7,19.6,0.02,Rain,Rain,10,2012-10-02 01:00:00
8:07 PM,57.2,53.6,88,29.72,3.0,North,12.7,-,0.02,Rain,Light Rain,10,2012-10-02 01:07:00
8:32 PM,57.2,53.6,88,29.73,2.0,North,11.5,-,0.08,Rain,Heavy Rain,10,2012-10-02 01:32:00
8:53 PM,57.0,54.0,89,29.73,2.5,North,13.8,21.9,0.14,Rain,Rain,10,2012-10-02 01:53:00
9:10 PM,57.2,53.6,88,29.73,3.0,North,12.7,-,0.03,Rain,Rain,360,2012-10-02 02:10:00
9:53 PM,55.9,53.1,90,29.73,4.0,North,12.7,-,0.11,Rain,Light Rain,10,2012-10-02 02:53:00
11:53 PM,55.0,52.0,89,29.71,6.0,North,12.7,-,0.01,,Overcast,10,2012-10-02 04:53:00